WLS319 EGFF-GCFV

Flight info

Callsign WLS319
Flight time N/A
Altitude 35000
Route EXMOR DCT JOZMA DCT AMPOP DCT SOSOV DCT DEMOS DCT BEXAL DCT BENTU DCT TERTO
Aircraft A320/M-SDE3FGHIRWY/LB1

Departure

Time N/A
Airport Cardiff International Airport (EGFF)

Arrival

Time 2026-04-28 11:49
Airport Fuerteventura Airport (GCFV)
Time Latitude Longitude Altitude Speed Heading
2026-04-28 08:08 51.06412 -3.48233 9767 ft 313 kts 213°
2026-04-28 08:08 51.04587 -3.50175 10437 ft 318 kts 213°
2026-04-28 08:09 51.02693 -3.52194 10678 ft 340 kts 214°
2026-04-28 08:09 51.00662 -3.54357 10852 ft 362 kts 214°
2026-04-28 08:09 50.98541 -3.56616 11347 ft 371 kts 214°
2026-04-28 08:09 50.96379 -3.58915 11971 ft 376 kts 214°
2026-04-28 08:10 50.94193 -3.61237 12610 ft 381 kts 214°
2026-04-28 08:10 50.91976 -3.63585 13242 ft 386 kts 214°
2026-04-28 08:10 50.89730 -3.65960 13871 ft 390 kts 214°
2026-04-28 08:10 50.87488 -3.68329 14434 ft 395 kts 213°
2026-04-28 08:11 50.85191 -3.70755 14979 ft 400 kts 213°
2026-04-28 08:11 50.82865 -3.73206 15512 ft 404 kts 213°
2026-04-28 08:11 50.80509 -3.75683 16066 ft 408 kts 214°
2026-04-28 08:11 50.78133 -3.78175 16602 ft 412 kts 214°
2026-04-28 08:12 50.75735 -3.80691 17152 ft 416 kts 214°
2026-04-28 08:12 50.73311 -3.83237 17673 ft 420 kts 214°
2026-04-28 08:12 50.70864 -3.85804 18209 ft 425 kts 213°
2026-04-28 08:12 50.68388 -3.88396 18722 ft 429 kts 213°
2026-04-28 08:13 50.65925 -3.90970 19163 ft 433 kts 213°
2026-04-28 08:13 50.63502 -3.93814 19611 ft 437 kts 223°
2026-04-28 08:13 50.61370 -3.97229 20051 ft 439 kts 233°
2026-04-28 08:13 50.59510 -4.01059 20498 ft 442 kts 236°
2026-04-28 08:14 50.57660 -4.04948 20959 ft 446 kts 236°
2026-04-28 08:14 50.55796 -4.08847 21500 ft 447 kts 236°
2026-04-28 08:14 50.53912 -4.12769 21973 ft 450 kts 236°
2026-04-28 08:14 50.52016 -4.16710 22418 ft 454 kts 236°
2026-04-28 08:15 50.50103 -4.20683 22714 ft 460 kts 237°
2026-04-28 08:15 50.48159 -4.24719 23094 ft 465 kts 237°
2026-04-28 08:15 50.46229 -4.28724 23492 ft 469 kts 237°
2026-04-28 08:15 50.44238 -4.32850 23887 ft 473 kts 237°
2026-04-28 08:16 50.42244 -4.36970 24237 ft 476 kts 237°
2026-04-28 08:16 50.40228 -4.41124 24603 ft 479 kts 237°
2026-04-28 08:16 50.38230 -4.45231 24959 ft 481 kts 236°
2026-04-28 08:16 50.36196 -4.49408 25312 ft 483 kts 236°
2026-04-28 08:17 50.34158 -4.53599 25659 ft 486 kts 236°
2026-04-28 08:17 50.32106 -4.57816 26042 ft 487 kts 236°
2026-04-28 08:17 50.30055 -4.62017 26441 ft 486 kts 237°
2026-04-28 08:17 50.27995 -4.66228 26739 ft 488 kts 237°
2026-04-28 08:18 50.25927 -4.70448 27067 ft 491 kts 236°
2026-04-28 08:18 50.23842 -4.74695 27382 ft 493 kts 236°
2026-04-28 08:18 50.21749 -4.78951 27700 ft 495 kts 236°
2026-04-28 08:18 50.19676 -4.83157 28005 ft 497 kts 236°
2026-04-28 08:19 50.17564 -4.87434 28300 ft 499 kts 236°
2026-04-28 08:19 50.15444 -4.91728 28591 ft 501 kts 236°
2026-04-28 08:19 50.13313 -4.96039 28883 ft 503 kts 236°
2026-04-28 08:19 50.11170 -5.00363 29156 ft 505 kts 236°
2026-04-28 08:20 50.09017 -5.04695 29445 ft 507 kts 236°
2026-04-28 08:20 50.06857 -5.09029 29788 ft 507 kts 236°
2026-04-28 08:20 50.04697 -5.13362 30110 ft 507 kts 236°
2026-04-28 08:20 50.02536 -5.17703 30364 ft 509 kts 236°
2026-04-28 08:21 50.00394 -5.22001 30578 ft 510 kts 236°
2026-04-28 08:21 49.98220 -5.26349 30877 ft 509 kts 236°
2026-04-28 08:21 49.96053 -5.30674 31193 ft 507 kts 236°
2026-04-28 08:21 49.93883 -5.34986 31504 ft 506 kts 236°
2026-04-28 08:22 49.91715 -5.39276 31820 ft 505 kts 236°
2026-04-28 08:22 49.89549 -5.43559 32119 ft 504 kts 236°
2026-04-28 08:22 49.87390 -5.47828 32311 ft 504 kts 236°
2026-04-28 08:22 49.85224 -5.52113 32508 ft 505 kts 236°
2026-04-28 08:23 49.83057 -5.56399 32791 ft 505 kts 236°
2026-04-28 08:23 49.80927 -5.60603 33227 ft 500 kts 236°
2026-04-28 08:23 49.78788 -5.64812 33607 ft 497 kts 236°
2026-04-28 08:23 49.76655 -5.69006 33928 ft 495 kts 236°
2026-04-28 08:24 49.74524 -5.73191 34224 ft 494 kts 236°
2026-04-28 08:24 49.72400 -5.77354 34470 ft 493 kts 236°
2026-04-28 08:24 49.70279 -5.81507 34716 ft 492 kts 236°
2026-04-28 08:24 49.68159 -5.85652 34967 ft 491 kts 236°
2026-04-28 08:25 49.66043 -5.89785 35084 ft 492 kts 236°
2026-04-28 08:25 49.63917 -5.93931 35232 ft 493 kts 236°
2026-04-28 08:26 49.57560 -6.06243 35286 ft 489 kts 235°
2026-04-28 08:26 49.52570 -6.13377 35282 ft 494 kts 215°
2026-04-28 08:27 49.46338 -6.17837 35281 ft 497 kts 195°
2026-04-28 08:27 49.39663 -6.20606 35277 ft 497 kts 195°
2026-04-28 08:28 49.32982 -6.23385 35277 ft 496 kts 195°
2026-04-28 08:28 49.26360 -6.26132 35242 ft 496 kts 195°
2026-04-28 08:29 49.19686 -6.28879 35246 ft 497 kts 195°
2026-04-28 08:29 49.13010 -6.31624 35259 ft 497 kts 195°
2026-04-28 08:30 49.06334 -6.34355 35265 ft 496 kts 195°
2026-04-28 08:30 48.99719 -6.37047 35261 ft 495 kts 195°
2026-04-28 08:31 48.93069 -6.39760 35260 ft 494 kts 195°
2026-04-28 08:31 48.86430 -6.42466 35258 ft 493 kts 195°
2026-04-28 08:32 48.79804 -6.45165 35262 ft 492 kts 195°
2026-04-28 08:32 48.73191 -6.47840 35261 ft 492 kts 195°
2026-04-28 08:33 48.66624 -6.50477 35256 ft 491 kts 195°
2026-04-28 08:33 48.60014 -6.53130 35219 ft 491 kts 195°
2026-04-28 08:34 48.53404 -6.55794 35215 ft 492 kts 195°
2026-04-28 08:34 48.46785 -6.58443 35220 ft 492 kts 195°
2026-04-28 08:35 48.40165 -6.61074 35222 ft 492 kts 195°
2026-04-28 08:35 48.33593 -6.63691 35234 ft 491 kts 195°
2026-04-28 08:36 48.26988 -6.66317 35220 ft 491 kts 195°
2026-04-28 08:36 48.20381 -6.68927 35235 ft 490 kts 195°
2026-04-28 08:37 48.13788 -6.71523 35235 ft 489 kts 195°
2026-04-28 08:37 48.07258 -6.74085 35233 ft 488 kts 195°
2026-04-28 08:38 48.00694 -6.76660 35229 ft 487 kts 195°
2026-04-28 08:38 47.94149 -6.79223 35200 ft 486 kts 195°
2026-04-28 08:39 47.87609 -6.81779 35195 ft 486 kts 195°
2026-04-28 08:39 47.81064 -6.84333 35186 ft 486 kts 195°
2026-04-28 08:40 47.74574 -6.86847 35206 ft 485 kts 195°
2026-04-28 08:40 47.68052 -6.89375 35214 ft 484 kts 195°
2026-04-28 08:41 47.61555 -6.91905 35216 ft 483 kts 195°
2026-04-28 08:41 47.55079 -6.94444 35539 ft 458 kts 204°
2026-04-28 08:41 47.52627 -6.96376 38566 ft 354 kts 230°
2026-04-28 08:42 47.50973 -6.98756 39798 ft 333 kts 225°
2026-04-28 08:42 47.48998 -7.00796 38563 ft 373 kts 209°
2026-04-28 08:42 47.46404 -7.02391 36325 ft 428 kts 204°
2026-04-28 08:42 47.43568 -7.03953 35735 ft 439 kts 198°
2026-04-28 08:43 47.40501 -7.04676 35227 ft 455 kts 176°
2026-04-28 08:43 47.37397 -7.04367 35885 ft 433 kts 175°
2026-04-28 08:43 47.34397 -7.04030 36257 ft 433 kts 176°
2026-04-28 08:43 47.31384 -7.03833 36372 ft 434 kts 185°
2026-04-28 08:44 47.28420 -7.04564 36487 ft 432 kts 196°
2026-04-28 08:44 47.22610 -7.06787 36638 ft 436 kts 195°
2026-04-28 08:44 47.19664 -7.07914 36758 ft 438 kts 195°
2026-04-28 08:45 47.16712 -7.09040 36886 ft 439 kts 195°
2026-04-28 08:45 47.13761 -7.10156 37099 ft 437 kts 196°
2026-04-28 08:45 47.10815 -7.11263 37264 ft 437 kts 196°
2026-04-28 08:46 47.04910 -7.13484 37477 ft 438 kts 196°
2026-04-28 08:46 47.01957 -7.14601 37593 ft 439 kts 196°
2026-04-28 08:46 46.98993 -7.15722 37669 ft 440 kts 196°
2026-04-28 08:46 46.96068 -7.16830 37799 ft 440 kts 196°
2026-04-28 08:47 46.93103 -7.17951 37940 ft 439 kts 197°
2026-04-28 08:47 46.87177 -7.20178 38157 ft 440 kts 196°
2026-04-28 08:47 46.84215 -7.21288 38261 ft 440 kts 197°
2026-04-28 08:48 46.81245 -7.22398 38309 ft 441 kts 197°
2026-04-28 08:48 46.75291 -7.24613 38489 ft 442 kts 197°
2026-04-28 08:49 46.69376 -7.26810 38684 ft 441 kts 197°
2026-04-28 08:49 46.63424 -7.29027 38831 ft 442 kts 197°
2026-04-28 08:50 46.57460 -7.31255 38881 ft 444 kts 195°
2026-04-28 08:50 46.51453 -7.33475 38898 ft 447 kts 195°
2026-04-28 08:51 46.45402 -7.35696 38704 ft 449 kts 197°
2026-04-28 08:51 46.42378 -7.36805 38467 ft 448 kts 197°
2026-04-28 08:51 46.39403 -7.37900 38073 ft 446 kts 197°
2026-04-28 08:51 46.36395 -7.39009 37697 ft 446 kts 196°
2026-04-28 08:52 46.33391 -7.40117 37644 ft 445 kts 195°
2026-04-28 08:52 46.27404 -7.42328 37792 ft 443 kts 196°
2026-04-28 08:53 46.21448 -7.44515 37962 ft 441 kts 197°
2026-04-28 08:53 46.15495 -7.46675 38109 ft 441 kts 197°
2026-04-28 08:54 46.09596 -7.48819 38275 ft 437 kts 196°
2026-04-28 08:54 46.03712 -7.50970 38433 ft 436 kts 195°
2026-04-28 08:55 45.97826 -7.53109 38587 ft 436 kts 197°
2026-04-28 08:55 45.91922 -7.55244 38681 ft 438 kts 197°
2026-04-28 08:56 45.86021 -7.57374 38830 ft 437 kts 195°
2026-04-28 08:56 45.80149 -7.59477 38932 ft 438 kts 196°
2026-04-28 08:57 45.74226 -7.61598 38967 ft 440 kts 196°
2026-04-28 08:57 45.68297 -7.63726 38911 ft 438 kts 196°
2026-04-28 08:58 45.62404 -7.65858 38737 ft 435 kts 196°
2026-04-28 08:58 45.59511 -7.66896 38505 ft 434 kts 197°
2026-04-28 08:58 45.56588 -7.67936 38093 ft 432 kts 197°
2026-04-28 08:58 45.53682 -7.68969 37726 ft 429 kts 195°
2026-04-28 08:59 45.50793 -7.69999 37640 ft 429 kts 195°
2026-04-28 08:59 45.45007 -7.72052 37592 ft 428 kts 196°
2026-04-28 09:00 45.39234 -7.74090 37524 ft 428 kts 195°
2026-04-28 09:00 45.34437 -7.75789 37473 ft 427 kts 196°
2026-04-28 09:01 45.27739 -7.78164 37398 ft 427 kts 194°
2026-04-28 09:01 45.21985 -7.80195 37341 ft 426 kts 196°
2026-04-28 09:02 45.16234 -7.82225 37288 ft 426 kts 195°
2026-04-28 09:02 45.10522 -7.84231 37218 ft 427 kts 195°
2026-04-28 09:03 45.04770 -7.86253 37164 ft 426 kts 195°
2026-04-28 09:03 44.99013 -7.88276 37108 ft 426 kts 197°
2026-04-28 09:04 44.93426 -7.91000 37047 ft 425 kts 200°
2026-04-28 09:04 44.87896 -7.93815 36993 ft 424 kts 201°
2026-04-28 09:05 44.82341 -7.96632 36933 ft 424 kts 200°
2026-04-28 09:05 44.76791 -7.99438 36876 ft 424 kts 200°
2026-04-28 09:06 44.71236 -8.02248 36826 ft 423 kts 201°
2026-04-28 09:06 44.66634 -8.04564 36769 ft 423 kts 200°
2026-04-28 09:07 44.60213 -8.07785 36713 ft 422 kts 201°
2026-04-28 09:07 44.54681 -8.10562 36656 ft 421 kts 201°
2026-04-28 09:08 44.50094 -8.12864 36610 ft 422 kts 200°
2026-04-28 09:08 44.44565 -8.15635 36553 ft 422 kts 201°
2026-04-28 09:09 44.39037 -8.18397 36486 ft 422 kts 201°
2026-04-28 09:09 44.32612 -8.21602 36437 ft 422 kts 201°
2026-04-28 09:10 44.28025 -8.23886 36387 ft 420 kts 200°
2026-04-28 09:10 44.22523 -8.26618 36327 ft 420 kts 200°
2026-04-28 09:11 44.17020 -8.29346 36274 ft 420 kts 200°
2026-04-28 09:11 44.11514 -8.32065 36210 ft 419 kts 200°
2026-04-28 09:12 44.06026 -8.34773 36158 ft 417 kts 200°
2026-04-28 09:12 44.00616 -8.37439 36097 ft 415 kts 200°
2026-04-28 09:13 43.95159 -8.40115 36044 ft 415 kts 200°
2026-04-28 09:13 43.89715 -8.42787 35981 ft 416 kts 200°
2026-04-28 09:14 43.84286 -8.45447 35929 ft 413 kts 200°
2026-04-28 09:14 43.78878 -8.48094 35870 ft 415 kts 200°
2026-04-28 09:15 43.73463 -8.50744 35801 ft 414 kts 200°
2026-04-28 09:15 43.68020 -8.53388 35751 ft 416 kts 200°
2026-04-28 09:16 43.62548 -8.56043 35691 ft 417 kts 200°
2026-04-28 09:16 43.57071 -8.58706 35637 ft 418 kts 200°
2026-04-28 09:17 43.51628 -8.61345 35586 ft 417 kts 200°
2026-04-28 09:17 43.46142 -8.63988 35532 ft 418 kts 200°
2026-04-28 09:18 43.40651 -8.66632 35478 ft 418 kts 200°
2026-04-28 09:18 43.35160 -8.69283 35428 ft 418 kts 200°
2026-04-28 09:19 43.29672 -8.71919 35373 ft 418 kts 199°
2026-04-28 09:19 43.24220 -8.74524 35320 ft 418 kts 200°
2026-04-28 09:20 43.18739 -8.77154 35271 ft 417 kts 200°
2026-04-28 09:20 43.13257 -8.79779 35214 ft 417 kts 199°
2026-04-28 09:21 43.07772 -8.82390 35155 ft 417 kts 199°
2026-04-28 09:21 43.05032 -8.83695 34986 ft 417 kts 200°
2026-04-28 09:21 43.02291 -8.85001 34949 ft 416 kts 199°
2026-04-28 09:22 42.96850 -8.87583 34953 ft 417 kts 199°
2026-04-28 09:22 42.91370 -8.90176 34947 ft 417 kts 199°
2026-04-28 09:23 42.85887 -8.92780 34949 ft 417 kts 200°
2026-04-28 09:23 42.80412 -8.95372 34939 ft 416 kts 199°
2026-04-28 09:24 42.74940 -8.97944 34935 ft 416 kts 199°
2026-04-28 09:24 42.69506 -9.00501 34932 ft 416 kts 199°
2026-04-28 09:25 42.64040 -9.03059 34924 ft 416 kts 199°
2026-04-28 09:25 42.58574 -9.05612 34925 ft 415 kts 199°
2026-04-28 09:26 42.53113 -9.08172 34925 ft 415 kts 199°
2026-04-28 09:26 42.47696 -9.10710 34929 ft 415 kts 199°
2026-04-28 09:27 42.39512 -9.14532 34912 ft 415 kts 199°
2026-04-28 09:27 42.34059 -9.17062 34909 ft 414 kts 199°
2026-04-28 09:28 42.28601 -9.19586 34905 ft 414 kts 199°
2026-04-28 09:28 42.23187 -9.22097 34899 ft 414 kts 199°
2026-04-28 09:29 42.17737 -9.24626 34896 ft 414 kts 199°
2026-04-28 09:29 42.12287 -9.27142 34896 ft 414 kts 199°
2026-04-28 09:30 42.06836 -9.29651 34891 ft 414 kts 199°
2026-04-28 09:30 42.01420 -9.32142 34891 ft 414 kts 199°
2026-04-28 09:31 41.95976 -9.34640 34894 ft 414 kts 199°
2026-04-28 09:31 41.90512 -9.37079 34896 ft 414 kts 197°
2026-04-28 09:32 41.84980 -9.39215 34893 ft 414 kts 195°
2026-04-28 09:32 41.79423 -9.41247 34886 ft 414 kts 196°
2026-04-28 09:33 41.73916 -9.43296 34889 ft 414 kts 196°
2026-04-28 09:33 41.68382 -9.45397 34891 ft 413 kts 196°
2026-04-28 09:34 41.62847 -9.47509 34902 ft 414 kts 196°
2026-04-28 09:34 41.57316 -9.49618 34893 ft 414 kts 196°
2026-04-28 09:35 41.51777 -9.51719 34892 ft 414 kts 196°
2026-04-28 09:35 41.46274 -9.53797 34893 ft 414 kts 196°
2026-04-28 09:36 41.40734 -9.55878 34896 ft 414 kts 196°
2026-04-28 09:36 41.35195 -9.57965 34891 ft 414 kts 196°
2026-04-28 09:37 41.29651 -9.60045 34890 ft 414 kts 196°
2026-04-28 09:37 41.24141 -9.62104 34891 ft 414 kts 196°
2026-04-28 09:38 41.18595 -9.64178 34894 ft 414 kts 196°
2026-04-28 09:38 41.13046 -9.66244 34894 ft 414 kts 196°
2026-04-28 09:39 41.07494 -9.68315 34895 ft 415 kts 196°
2026-04-28 09:39 41.01974 -9.70377 34903 ft 415 kts 196°
2026-04-28 09:40 40.96414 -9.72447 34903 ft 415 kts 196°
2026-04-28 09:40 40.90849 -9.74505 34896 ft 415 kts 196°
2026-04-28 09:41 40.85287 -9.76556 34899 ft 415 kts 196°
2026-04-28 09:41 40.79765 -9.78596 34906 ft 415 kts 196°
2026-04-28 09:42 40.74209 -9.80652 34909 ft 415 kts 196°
2026-04-28 09:42 40.68657 -9.82701 34910 ft 414 kts 196°
2026-04-28 09:43 40.63102 -9.84741 34921 ft 414 kts 196°
2026-04-28 09:43 40.57552 -9.86773 34913 ft 414 kts 196°
2026-04-28 09:44 40.52030 -9.88801 34912 ft 415 kts 196°
2026-04-28 09:44 40.46469 -9.90837 34902 ft 415 kts 196°
2026-04-28 09:45 40.40907 -9.92867 34907 ft 415 kts 196°
2026-04-28 09:45 40.35341 -9.94898 34912 ft 415 kts 196°
2026-04-28 09:46 40.29814 -9.96908 34915 ft 415 kts 196°
2026-04-28 09:46 40.24255 -9.98930 34915 ft 415 kts 196°
2026-04-28 09:47 40.18689 -10.00948 34920 ft 415 kts 196°
2026-04-28 09:47 40.13125 -10.02960 34921 ft 415 kts 196°
2026-04-28 09:48 40.07557 -10.04968 34917 ft 415 kts 196°
2026-04-28 09:48 40.02032 -10.06952 34917 ft 415 kts 196°
2026-04-28 09:49 39.96460 -10.08956 34922 ft 415 kts 196°
2026-04-28 09:49 39.90899 -10.10962 34924 ft 415 kts 196°
2026-04-28 09:50 39.85335 -10.12960 34925 ft 415 kts 196°
2026-04-28 09:50 39.79813 -10.14943 34921 ft 414 kts 196°
2026-04-28 09:51 39.74255 -10.16936 34922 ft 414 kts 196°
2026-04-28 09:51 39.68697 -10.18923 34923 ft 414 kts 196°
2026-04-28 09:52 39.63139 -10.20899 34929 ft 414 kts 196°
2026-04-28 09:52 39.57615 -10.22866 34926 ft 415 kts 196°
2026-04-28 09:53 39.52040 -10.24848 34926 ft 415 kts 196°
2026-04-28 09:53 39.46463 -10.26827 34923 ft 416 kts 196°
2026-04-28 09:54 39.40886 -10.28808 34930 ft 416 kts 196°
2026-04-28 09:54 39.35300 -10.30786 34931 ft 416 kts 196°
2026-04-28 09:55 39.29754 -10.32741 34928 ft 416 kts 196°
2026-04-28 09:55 39.24168 -10.34705 34928 ft 416 kts 196°
2026-04-28 09:56 39.18578 -10.36671 34929 ft 416 kts 196°
2026-04-28 09:56 39.12988 -10.38635 34936 ft 416 kts 196°
2026-04-28 09:57 39.07398 -10.40598 34926 ft 416 kts 196°
2026-04-28 09:57 39.01841 -10.42543 34938 ft 417 kts 196°
2026-04-28 09:58 38.96243 -10.44497 34939 ft 417 kts 196°
2026-04-28 09:58 38.90646 -10.46447 34945 ft 417 kts 196°
2026-04-28 09:59 38.85044 -10.48400 34937 ft 417 kts 196°
2026-04-28 09:59 38.79485 -10.50335 34940 ft 417 kts 196°
2026-04-28 10:00 38.73886 -10.52288 34944 ft 417 kts 196°
2026-04-28 10:00 38.68280 -10.54227 34943 ft 417 kts 196°
2026-04-28 10:01 38.62680 -10.56165 34942 ft 417 kts 196°
2026-04-28 10:01 38.57080 -10.58099 34945 ft 417 kts 196°
2026-04-28 10:02 38.51504 -10.60021 34930 ft 418 kts 196°
2026-04-28 10:02 38.45888 -10.61954 34931 ft 418 kts 196°
2026-04-28 10:03 38.40266 -10.63895 34925 ft 419 kts 197°
2026-04-28 10:03 38.34638 -10.65828 34936 ft 419 kts 196°
2026-04-28 10:04 38.29047 -10.67740 34937 ft 419 kts 196°
2026-04-28 10:04 38.23410 -10.69672 34941 ft 419 kts 196°
2026-04-28 10:05 38.17774 -10.71597 34941 ft 420 kts 196°
2026-04-28 10:05 38.12136 -10.73522 34938 ft 420 kts 197°
2026-04-28 10:06 38.06488 -10.75442 34939 ft 420 kts 196°
2026-04-28 10:06 38.00876 -10.77349 34942 ft 420 kts 197°
2026-04-28 10:07 37.95227 -10.79273 34946 ft 421 kts 197°
2026-04-28 10:07 37.89568 -10.81199 34950 ft 421 kts 197°
2026-04-28 10:08 37.83907 -10.83115 34949 ft 421 kts 197°
2026-04-28 10:08 37.78285 -10.85014 34951 ft 421 kts 196°
2026-04-28 10:09 37.72630 -10.86926 34958 ft 421 kts 196°
2026-04-28 10:09 37.66970 -10.88832 34951 ft 421 kts 196°
2026-04-28 10:10 37.61316 -10.90729 34953 ft 421 kts 197°
2026-04-28 10:10 37.55659 -10.92632 34955 ft 421 kts 197°
2026-04-28 10:11 37.50033 -10.94518 34957 ft 421 kts 197°
2026-04-28 10:11 37.44368 -10.96420 34948 ft 422 kts 197°
2026-04-28 10:12 37.38690 -10.98319 34947 ft 422 kts 197°
2026-04-28 10:12 37.33005 -11.00221 34948 ft 423 kts 197°
2026-04-28 10:13 37.27350 -11.02103 34950 ft 423 kts 197°
2026-04-28 10:13 37.21652 -11.03992 34953 ft 424 kts 197°
2026-04-28 10:14 37.15951 -11.05882 34948 ft 424 kts 197°
2026-04-28 10:14 37.10240 -11.07774 34953 ft 424 kts 197°
2026-04-28 10:15 37.04528 -11.09663 34959 ft 425 kts 197°
2026-04-28 10:15 36.98856 -11.11553 34967 ft 425 kts 197°
2026-04-28 10:16 36.93142 -11.13446 34960 ft 425 kts 197°
2026-04-28 10:16 36.87417 -11.15323 34961 ft 426 kts 197°
2026-04-28 10:17 36.81689 -11.17196 34972 ft 426 kts 197°
2026-04-28 10:17 36.75995 -11.19073 34972 ft 426 kts 197°
2026-04-28 10:18 36.70262 -11.20964 34968 ft 426 kts 197°
2026-04-28 10:18 36.64524 -11.22840 34971 ft 426 kts 197°
2026-04-28 10:19 36.58786 -11.24713 34969 ft 427 kts 197°
2026-04-28 10:19 36.53079 -11.26572 34979 ft 427 kts 197°
2026-04-28 10:20 36.47338 -11.28439 34977 ft 427 kts 197°
2026-04-28 10:20 36.41596 -11.30315 34968 ft 427 kts 197°
2026-04-28 10:21 36.35847 -11.32194 34972 ft 427 kts 197°
2026-04-28 10:21 36.30082 -11.34068 34969 ft 429 kts 197°
2026-04-28 10:22 36.24347 -11.35919 34968 ft 429 kts 197°
2026-04-28 10:22 36.18561 -11.37789 34955 ft 430 kts 197°
2026-04-28 10:23 36.12768 -11.39659 34962 ft 431 kts 197°
2026-04-28 10:23 36.06967 -11.41531 34960 ft 431 kts 197°
2026-04-28 10:24 36.01201 -11.43383 34963 ft 431 kts 197°
2026-04-28 10:24 35.95260 -11.44481 34965 ft 436 kts 181°
2026-04-28 10:25 35.89210 -11.43683 34962 ft 438 kts 175°
2026-04-28 10:25 35.83153 -11.42741 34963 ft 439 kts 175°
2026-04-28 10:26 35.77132 -11.41817 34975 ft 439 kts 175°
2026-04-28 10:26 35.71072 -11.40880 34972 ft 439 kts 175°
2026-04-28 10:27 35.65012 -11.39948 34964 ft 439 kts 175°
2026-04-28 10:27 35.58938 -11.39010 34958 ft 440 kts 175°
2026-04-28 10:28 35.52854 -11.38065 34967 ft 441 kts 175°
2026-04-28 10:29 35.43753 -11.36671 34962 ft 442 kts 175°
2026-04-28 10:29 35.37652 -11.35736 34972 ft 442 kts 175°
2026-04-28 10:30 35.31553 -11.34798 34979 ft 442 kts 175°
2026-04-28 10:30 35.25450 -11.33865 34980 ft 442 kts 175°
2026-04-28 10:31 35.19351 -11.32927 34970 ft 442 kts 175°
2026-04-28 10:31 35.13289 -11.31999 34977 ft 442 kts 175°
2026-04-28 10:32 35.07190 -11.31076 34986 ft 441 kts 175°
2026-04-28 10:32 35.01108 -11.30157 35000 ft 439 kts 175°
2026-04-28 10:33 34.95094 -11.29239 34991 ft 438 kts 175°
2026-04-28 10:33 34.89056 -11.28325 34989 ft 437 kts 175°
2026-04-28 10:34 34.83023 -11.27420 34985 ft 436 kts 175°
2026-04-28 10:34 34.77001 -11.26514 34981 ft 436 kts 175°
2026-04-28 10:35 34.71012 -11.25607 34970 ft 436 kts 175°
2026-04-28 10:35 34.64984 -11.24782 34967 ft 435 kts 181°
2026-04-28 10:36 34.59049 -11.25646 34967 ft 428 kts 198°
2026-04-28 10:36 34.53321 -11.27629 34968 ft 428 kts 198°
2026-04-28 10:37 34.47586 -11.29603 34969 ft 429 kts 198°
2026-04-28 10:37 34.41879 -11.31556 34967 ft 429 kts 198°
2026-04-28 10:38 34.36119 -11.33524 34960 ft 431 kts 198°
2026-04-28 10:38 34.30328 -11.35490 34965 ft 433 kts 199°
2026-04-28 10:39 34.24521 -11.37466 34966 ft 434 kts 199°
2026-04-28 10:39 34.18742 -11.39431 34956 ft 435 kts 199°
2026-04-28 10:40 34.12915 -11.41404 34965 ft 436 kts 199°
2026-04-28 10:40 34.07076 -11.43381 34971 ft 436 kts 199°
2026-04-28 10:41 34.01237 -11.45366 34978 ft 436 kts 199°
2026-04-28 10:41 33.95430 -11.47323 34980 ft 436 kts 199°
2026-04-28 10:42 33.89592 -11.49292 34975 ft 436 kts 199°
2026-04-28 10:42 33.83753 -11.51265 34979 ft 436 kts 199°
2026-04-28 10:43 33.77914 -11.53237 34980 ft 436 kts 199°
2026-04-28 10:43 33.72081 -11.55194 34982 ft 435 kts 199°
2026-04-28 10:44 33.66283 -11.57138 34971 ft 435 kts 199°
2026-04-28 10:44 33.60456 -11.59100 34974 ft 435 kts 199°
2026-04-28 10:45 33.54618 -11.61053 34979 ft 436 kts 199°
2026-04-28 10:45 33.48775 -11.63001 34981 ft 436 kts 199°
2026-04-28 10:46 33.42972 -11.64936 34983 ft 436 kts 199°
2026-04-28 10:46 33.37133 -11.66882 34977 ft 436 kts 199°
2026-04-28 10:47 33.31289 -11.68827 34986 ft 436 kts 199°
2026-04-28 10:47 33.25445 -11.70766 34990 ft 436 kts 199°
2026-04-28 10:48 33.19641 -11.72699 34993 ft 436 kts 199°
2026-04-28 10:48 33.13801 -11.74639 34994 ft 436 kts 199°
2026-04-28 10:49 33.07950 -11.76576 34986 ft 436 kts 199°
2026-04-28 10:49 33.02100 -11.78503 34990 ft 436 kts 199°
2026-04-28 10:50 32.96283 -11.80422 34993 ft 437 kts 199°
2026-04-28 10:50 32.90431 -11.82354 35000 ft 437 kts 199°
2026-04-28 10:51 32.84569 -11.84285 35007 ft 437 kts 199°
2026-04-28 10:51 32.78706 -11.86207 35011 ft 437 kts 199°
2026-04-28 10:52 32.72890 -11.88120 35009 ft 437 kts 199°
2026-04-28 10:52 32.67032 -11.90047 35011 ft 437 kts 199°
2026-04-28 10:53 32.61175 -11.91963 35010 ft 437 kts 199°
2026-04-28 10:53 32.55313 -11.93875 34997 ft 437 kts 199°
2026-04-28 10:54 32.49459 -11.95791 35001 ft 437 kts 199°
2026-04-28 10:54 32.43643 -11.97691 35014 ft 437 kts 199°
2026-04-28 10:55 32.37782 -11.99597 35012 ft 437 kts 199°
2026-04-28 10:55 32.31918 -12.01501 35016 ft 437 kts 199°
2026-04-28 10:56 32.26099 -12.03380 35006 ft 437 kts 199°
2026-04-28 10:56 32.20236 -12.05276 34992 ft 437 kts 199°
2026-04-28 10:57 32.14363 -12.07192 34991 ft 439 kts 199°
2026-04-28 10:57 32.08468 -12.09106 34991 ft 440 kts 199°
2026-04-28 10:58 32.02564 -12.11012 34985 ft 440 kts 200°
2026-04-28 10:58 31.96695 -12.12899 34994 ft 440 kts 200°
2026-04-28 10:59 31.90781 -12.14804 34998 ft 441 kts 200°
2026-04-28 10:59 31.84864 -12.16704 35005 ft 441 kts 200°
2026-04-28 11:00 31.78951 -12.18604 35008 ft 441 kts 200°
2026-04-28 11:00 31.73076 -12.20494 34993 ft 441 kts 200°
2026-04-28 11:01 31.67163 -12.22388 35018 ft 440 kts 200°
2026-04-28 11:01 31.61258 -12.24274 35020 ft 440 kts 200°
2026-04-28 11:02 31.55355 -12.26157 35019 ft 439 kts 200°
2026-04-28 11:02 31.49456 -12.28034 35020 ft 439 kts 200°
2026-04-28 11:03 31.43607 -12.29896 35010 ft 438 kts 200°
2026-04-28 11:03 31.37733 -12.31774 35014 ft 437 kts 200°
2026-04-28 11:04 31.31871 -12.33645 35021 ft 437 kts 200°
2026-04-28 11:04 31.26006 -12.35506 35020 ft 437 kts 200°
2026-04-28 11:05 31.20181 -12.37352 35024 ft 437 kts 200°
2026-04-28 11:05 31.14318 -12.39205 35016 ft 436 kts 200°
2026-04-28 11:06 31.08463 -12.41062 35015 ft 436 kts 200°
2026-04-28 11:06 31.02606 -12.42912 35011 ft 437 kts 200°
2026-04-28 11:07 30.96735 -12.44765 35010 ft 438 kts 200°
2026-04-28 11:07 30.90887 -12.46602 34989 ft 438 kts 201°
2026-04-28 11:08 30.85015 -12.48446 35018 ft 437 kts 201°
2026-04-28 11:08 30.79150 -12.50298 35023 ft 437 kts 201°
2026-04-28 11:09 30.73326 -12.52130 35035 ft 436 kts 201°
2026-04-28 11:09 30.67469 -12.53961 35034 ft 436 kts 201°
2026-04-28 11:10 30.61611 -12.55791 35007 ft 436 kts 201°
2026-04-28 11:10 30.55767 -12.57621 35029 ft 435 kts 201°
2026-04-28 11:11 30.49929 -12.59447 35035 ft 434 kts 201°
2026-04-28 11:11 30.44144 -12.61256 35037 ft 434 kts 201°
2026-04-28 11:12 30.38316 -12.63076 35038 ft 434 kts 201°
2026-04-28 11:12 30.32490 -12.64896 35023 ft 433 kts 201°
2026-04-28 11:13 30.26674 -12.66709 35040 ft 433 kts 201°
2026-04-28 11:13 30.20896 -12.68489 35046 ft 433 kts 200°
2026-04-28 11:14 30.15078 -12.70269 35049 ft 432 kts 201°
2026-04-28 11:14 30.09401 -12.72400 35044 ft 423 kts 212°
2026-04-28 11:15 30.04279 -12.75667 35039 ft 420 kts 214°
2026-04-28 11:15 29.99192 -12.78917 35023 ft 421 kts 214°
2026-04-28 11:16 29.94063 -12.82180 35022 ft 422 kts 214°
2026-04-28 11:16 29.88925 -12.85459 35024 ft 422 kts 214°
2026-04-28 11:17 29.83785 -12.88742 35030 ft 423 kts 214°
2026-04-28 11:17 29.78675 -12.91989 34740 ft 419 kts 214°
2026-04-28 11:17 29.76131 -12.93600 34510 ft 416 kts 214°
2026-04-28 11:18 29.73606 -12.95201 34242 ft 412 kts 215°
2026-04-28 11:18 29.71105 -12.96789 34001 ft 409 kts 215°
2026-04-28 11:18 29.68621 -12.98364 33735 ft 407 kts 215°
2026-04-28 11:18 29.66150 -12.99930 33468 ft 405 kts 215°
2026-04-28 11:19 29.63695 -13.01484 33158 ft 401 kts 215°
2026-04-28 11:19 29.61258 -13.03024 32681 ft 398 kts 215°
2026-04-28 11:19 29.58837 -13.04558 32206 ft 396 kts 215°
2026-04-28 11:19 29.56431 -13.06085 31732 ft 394 kts 215°
2026-04-28 11:20 29.54072 -13.07583 31285 ft 392 kts 215°
2026-04-28 11:20 29.51689 -13.09094 30823 ft 391 kts 215°
2026-04-28 11:20 29.49311 -13.10601 30371 ft 389 kts 215°
2026-04-28 11:20 29.46947 -13.12099 29896 ft 388 kts 215°
2026-04-28 11:21 29.44594 -13.13587 29415 ft 384 kts 215°
2026-04-28 11:21 29.42262 -13.15055 29017 ft 381 kts 215°
2026-04-28 11:21 29.39951 -13.16509 28592 ft 378 kts 215°
2026-04-28 11:21 29.37655 -13.17956 28177 ft 375 kts 214°
2026-04-28 11:22 29.35403 -13.19360 27768 ft 373 kts 213°
2026-04-28 11:22 29.33090 -13.20702 27340 ft 373 kts 212°
2026-04-28 11:22 29.30759 -13.21981 26914 ft 372 kts 211°
2026-04-28 11:22 29.28412 -13.23236 26473 ft 371 kts 211°
2026-04-28 11:23 29.26070 -13.24484 26039 ft 370 kts 211°
2026-04-28 11:23 29.23743 -13.25732 25589 ft 370 kts 211°
2026-04-28 11:23 29.21417 -13.26990 25134 ft 370 kts 211°
2026-04-28 11:23 29.19092 -13.28259 24656 ft 370 kts 211°
2026-04-28 11:24 29.16802 -13.29520 24179 ft 371 kts 211°
2026-04-28 11:24 29.14474 -13.30804 23683 ft 372 kts 211°
2026-04-28 11:24 29.12140 -13.32087 23149 ft 372 kts 211°
2026-04-28 11:24 29.09807 -13.33364 22659 ft 371 kts 210°
2026-04-28 11:25 29.07485 -13.34635 22179 ft 369 kts 210°
2026-04-28 11:25 29.05173 -13.35900 21702 ft 368 kts 210°
2026-04-28 11:25 29.02863 -13.37161 21219 ft 367 kts 210°
2026-04-28 11:25 29.00566 -13.38417 20743 ft 366 kts 210°
2026-04-28 11:26 28.98276 -13.39666 20328 ft 363 kts 210°
2026-04-28 11:26 28.96024 -13.40892 19841 ft 363 kts 209°
2026-04-28 11:26 28.93758 -13.42124 19379 ft 362 kts 209°
2026-04-28 11:26 28.91498 -13.43352 19036 ft 358 kts 209°
2026-04-28 11:27 28.89258 -13.44570 18632 ft 356 kts 209°
2026-04-28 11:27 28.87028 -13.45784 18191 ft 355 kts 209°
2026-04-28 11:27 28.84804 -13.46997 17736 ft 353 kts 209°
2026-04-28 11:27 28.82600 -13.48195 17308 ft 350 kts 208°
2026-04-28 11:28 28.80409 -13.49386 16891 ft 348 kts 208°
2026-04-28 11:28 28.78253 -13.50557 16458 ft 347 kts 208°
2026-04-28 11:28 28.76084 -13.51736 16035 ft 345 kts 208°
2026-04-28 11:28 28.73923 -13.52910 15640 ft 343 kts 208°
2026-04-28 11:29 28.71769 -13.54079 15236 ft 342 kts 208°
2026-04-28 11:29 28.69626 -13.55243 14841 ft 340 kts 207°
2026-04-28 11:29 28.67499 -13.56396 14451 ft 339 kts 207°
2026-04-28 11:29 28.65372 -13.57546 14065 ft 337 kts 207°
2026-04-28 11:30 28.63255 -13.58692 13665 ft 336 kts 208°
2026-04-28 11:30 28.59091 -13.60943 12828 ft 332 kts 207°
2026-04-28 11:30 28.57008 -13.62069 12413 ft 330 kts 207°
2026-04-28 11:31 28.54941 -13.63188 11996 ft 328 kts 208°
2026-04-28 11:31 28.52884 -13.64297 11595 ft 326 kts 207°
2026-04-28 11:31 28.50830 -13.65348 11317 ft 320 kts 206°
2026-04-28 11:31 28.48819 -13.66329 11185 ft 309 kts 205°
2026-04-28 11:32 28.46827 -13.67200 10915 ft 306 kts 197°
2026-04-28 11:32 28.44720 -13.67527 10568 ft 307 kts 182°
2026-04-28 11:32 28.42617 -13.67289 10193 ft 308 kts 174°
2026-04-28 11:32 28.40500 -13.66948 9864 ft 304 kts 174°
2026-04-28 11:33 28.38456 -13.66624 9727 ft 291 kts 174°
2026-04-28 11:33 28.36481 -13.66289 9495 ft 285 kts 169°
2026-04-28 11:33 28.34625 -13.65525 9176 ft 284 kts 153°
2026-04-28 11:33 28.32898 -13.64452 8829 ft 282 kts 152°
2026-04-28 11:34 28.31186 -13.63383 8479 ft 280 kts 152°
2026-04-28 11:34 28.29489 -13.62323 8140 ft 278 kts 152°
2026-04-28 11:34 28.27803 -13.61273 7862 ft 274 kts 152°
2026-04-28 11:34 28.26174 -13.60261 7713 ft 270 kts 152°
2026-04-28 11:35 28.24464 -13.59404 7591 ft 265 kts 166°
2026-04-28 11:35 28.22674 -13.59152 7469 ft 257 kts 184°
2026-04-28 11:35 28.20910 -13.59376 7349 ft 255 kts 189°
2026-04-28 11:35 28.19156 -13.59633 7228 ft 254 kts 189°
2026-04-28 11:36 28.17401 -13.59884 7101 ft 254 kts 188°
2026-04-28 11:36 28.15650 -13.60131 6981 ft 253 kts 188°
2026-04-28 11:36 28.13910 -13.60379 6862 ft 252 kts 188°
2026-04-28 11:36 28.12189 -13.60639 6744 ft 252 kts 192°
2026-04-28 11:37 28.10539 -13.61273 6625 ft 250 kts 210°
2026-04-28 11:37 28.09125 -13.62398 6510 ft 248 kts 224°
2026-04-28 11:37 28.07843 -13.63703 6385 ft 248 kts 224°
2026-04-28 11:37 28.06556 -13.65000 6261 ft 247 kts 223°
2026-04-28 11:38 28.05273 -13.66290 6135 ft 246 kts 224°
2026-04-28 11:38 28.03990 -13.67579 6025 ft 246 kts 223°
2026-04-28 11:38 28.03142 -13.68429 6028 ft 246 kts 224°
2026-04-28 11:38 28.01868 -13.69723 6030 ft 246 kts 227°
2026-04-28 11:39 28.00593 -13.71802 5996 ft 244 kts 248°
2026-04-28 11:39 28.00108 -13.73620 5867 ft 241 kts 258°
2026-04-28 11:39 27.99716 -13.75460 5738 ft 240 kts 258°
2026-04-28 11:39 27.99319 -13.77294 5619 ft 240 kts 258°
2026-04-28 11:40 27.98919 -13.79118 5496 ft 239 kts 258°
2026-04-28 11:40 27.98522 -13.80944 5368 ft 238 kts 261°
2026-04-28 11:40 27.98429 -13.82167 5283 ft 235 kts 277°
2026-04-28 11:40 27.98916 -13.83894 5158 ft 230 kts 304°
2026-04-28 11:41 28.00040 -13.85157 5035 ft 229 kts 330°
2026-04-28 11:41 28.02051 -13.85732 4877 ft 228 kts 358°
2026-04-28 11:41 28.03633 -13.85793 4745 ft 228 kts 358°
2026-04-28 11:41 28.04703 -13.85840 4651 ft 228 kts 358°
2026-04-28 11:42 28.06261 -13.85911 4524 ft 226 kts 358°
2026-04-28 11:42 28.08355 -13.86007 4347 ft 225 kts 358°
2026-04-28 11:42 28.09392 -13.86054 4270 ft 226 kts 358°
2026-04-28 11:42 28.10964 -13.86128 4144 ft 225 kts 358°
2026-04-28 11:43 28.12526 -13.86200 4015 ft 223 kts 358°
2026-04-28 11:43 28.14074 -13.86271 3892 ft 223 kts 358°
2026-04-28 11:43 28.15627 -13.86343 3767 ft 224 kts 358°
2026-04-28 11:43 28.17186 -13.86415 3641 ft 222 kts 358°
2026-04-28 11:44 28.18709 -13.86485 3515 ft 222 kts 358°
2026-04-28 11:44 28.20246 -13.86555 3393 ft 222 kts 358°
2026-04-28 11:44 28.21795 -13.86626 3266 ft 223 kts 358°
2026-04-28 11:44 28.23331 -13.86696 3137 ft 217 kts 357°
2026-04-28 11:45 28.24823 -13.86765 3006 ft 212 kts 357°
2026-04-28 11:45 28.26284 -13.86832 2875 ft 210 kts 358°
2026-04-28 11:45 28.27753 -13.86899 2750 ft 211 kts 357°
2026-04-28 11:45 28.29215 -13.86942 2695 ft 210 kts 359°
2026-04-28 11:46 28.30665 -13.86909 2618 ft 208 kts 359°
2026-04-28 11:46 28.32071 -13.86854 2483 ft 202 kts
2026-04-28 11:46 28.33466 -13.86796 2209 ft 200 kts 359°
2026-04-28 11:46 28.34850 -13.86741 1941 ft 197 kts 360°
2026-04-28 11:47 28.36220 -13.86688 1667 ft 197 kts 360°
2026-04-28 11:47 28.37577 -13.86634 1368 ft 192 kts
2026-04-28 11:47 28.38880 -13.86588 1109 ft 186 kts
2026-04-28 11:47 28.40183 -13.86544 861 ft 186 kts
2026-04-28 11:48 28.41485 -13.86502 634 ft 191 kts 359°
2026-04-28 11:48 28.42756 -13.86459 404 ft 179 kts 360°
2026-04-28 11:48 28.43971 -13.86420 156 ft 168 kts 360°
2026-04-28 11:48 28.45053 -13.86389 83 ft 136 kts 360°
2026-04-28 11:49 28.45785 -13.86366 91 ft 57 kts
2026-04-28 11:49 28.46034 -13.86411 99 ft 31 kts 338°
2026-04-28 11:49 28.46129 -13.86470 101 ft 0 kts 318°
2026-04-28 11:50 28.46138 -13.86482 99 ft 4 kts 308°
2026-04-28 11:50 28.46138 -13.86524 99 ft 7 kts 244°
2026-04-28 11:51 28.46078 -13.86545 99 ft 11 kts 179°
2026-04-28 11:51 28.46004 -13.86545 96 ft 11 kts 181°
2026-04-28 11:51 28.45930 -13.86547 95 ft 11 kts 182°
2026-04-28 11:51 28.45854 -13.86550 96 ft 11 kts 182°
2026-04-28 11:52 28.45776 -13.86553 92 ft 11 kts 182°
2026-04-28 11:52 28.45714 -13.86591 92 ft 11 kts 255°
2026-04-28 11:52 28.45710 -13.86689 91 ft 14 kts 262°
2026-04-28 11:52 28.45634 -13.86726 90 ft 13 kts 180°
2026-04-28 11:53 28.45542 -13.86727 88 ft 13 kts 180°
2026-04-28 11:53 28.45449 -13.86734 88 ft 12 kts 206°
2026-04-28 11:53 28.45435 -13.86806 87 ft 8 kts 274°
2026-04-28 11:53 28.45436 -13.86818 87 ft 0 kts 273°